Погода в Комилле

Бангладеш     23°27′51″N   91°11′17″E
темп.,
°C
ветер,
м/с
пор.,
м/с
влажн.,
%
обл.,
%
осадки,
мм/ч
давл.,
гПа
погр.,
м
14 июня, пн
пн1400:00+27ююв5128598 0.0 1001711
03:00+26юв3108765 0.0 999561
06:00+26юв3128877 0.0 1000719
09:00+30ююв7107397 0.0 10001154
12:00+31ююв8127680 2.9 9991321
15:00+31ююв8117315 3.5 9961315
18:00+28ююв712806 3.6 996847
21:00+27ююв6138483 0.0 999737
15 июня, вт
вт1500:00+27ююв5118838 0.0 998602
03:00+25юв4119212 1.1 996479
06:00+26юв399034 1.1 997498
09:00+30юв577553 0.0 998903
12:00+32ююв566574 1.6 9961313
15:00+31ю6870100 3.3 995936
18:00+28юв598394 3.5 996732
21:00+26юв61188100 0.0 997614
16 июня, ср
ср1600:00+26юв51287100 0.1 997593
03:00+25юв41194100 1.5 996578
06:00+25вюв289220 9.3 997451
09:00+29юв467518 0.0 997763
12:00+33ююв246187 0.1 9961356
15:00+30ю3481100 3.4 994397
18:00+28юв4984100 8.4 995440
21:00+26юв41290100 0.0 998767
17 июня, чт
чт1700:00+26ююв6129199 0.0 998747
03:00+25юв81491100 0.9 998656
06:00+25юв51192100 1.2 999577
09:00+27юв51087100 0.0 1001679
12:00+29юв687658 1.4 9991146
15:00+30ююв687450 0.5 9981075
18:00+27ююв6118312 1.1 999685
21:00+25юв5119170 0.0 1001548
18 июня, пт
пт1800:00+25юв5138999 0.0 1000586
03:00+24вюв61296100 3.4 998579
06:00+24юв81696100 31.2 999970
09:00+24ююв5998100 79.1 999611
12:00+25ююв81497100 140.4 1000984
15:00+25юв51197100 7.4 1001678
18:00+24юв71396100 17.6 1001754
21:00+24ююв61399100 30.3 1002786